Torna al catalogo

FENGYUN 1C DEB

LostPO
NORAD 37040·DEBRIS·🇨🇳 China

Lanciato May 10, 1999 da Taiyuan Satellite Launch Center

Loading…

Prossimi Passaggi (prossime 24 ore)

TLE

ObsoletoSource: Space-Track

Epoca: Aug 20, 2022, 02:24 UTC

1 37040U 99025EDY 22232.10007063  .00002664  00000-0  11564-2 0  9994
2 37040  99.5465 339.3284 0082141  84.5740 276.4799 14.23329516704023

Traccia FENGYUN 1C DEB in tempo reale con AllMySat

Download on the App Store